Location: Albany
(35.0170°S, 117.8920°E)
Time: 05:16:24
(UTC+08:00)

S-56A Canister/Altair - All Passes

Search period start: 22 January 2021 00:00
Search period end: 01 February 2021 00:00
Orbit: 633 x 2499 km, 38.9° (Epoch: 20 January)

Date Brightness Start Highest point End Pass type
(mag) Time Alt. Az. Time Alt. Az. Time Alt. Az.
22 Jan - 10:48:50 10° NNE 10:55:04 15° NE 11:01:52 10° E daylight
22 Jan - 12:46:33 10° NNW 12:59:12 49° NE 13:13:21 10° ESE daylight
22 Jan - 14:50:46 10° WNW 15:05:38 88° NNE 15:20:05 10° ESE daylight
22 Jan - 16:58:03 10° W 17:13:28 76° S 17:25:57 10° E daylight
22 Jan - 19:06:06 10° WSW 19:20:40 87° NNW 19:30:53 10° ENE daylight
22 Jan - 21:14:19 10° WSW 21:25:26 39° NW 21:33:14 10° NNE visible
23 Jan - 10:18:51 10° NE 10:22:06 11° ENE 10:25:29 10° ENE daylight
23 Jan - 12:13:54 10° NNW 12:25:49 44° NE 12:39:37 10° ESE daylight
23 Jan - 14:17:29 10° WNW 14:31:55 84° NNE 14:46:44 10° ESE daylight
23 Jan - 16:24:19 10° W 16:39:43 76° S 16:52:53 10° E daylight
23 Jan - 18:32:15 10° WSW 18:47:14 89° SSE 18:58:09 10° ENE daylight
23 Jan - 20:40:19 10° WSW 20:52:31 46° NW 21:01:03 10° NNE visible
24 Jan - 11:41:24 10° NNW 11:52:31 39° NE 12:05:45 10° ESE daylight
24 Jan - 13:44:18 10° WNW 13:58:14 80° NNE 14:13:18 10° ESE daylight
24 Jan - 15:50:40 10° W 16:05:55 77° S 16:19:42 10° E daylight
24 Jan - 17:58:25 10° WSW 18:13:43 86° SSE 18:25:19 10° ENE daylight
24 Jan - 20:06:22 10° WSW 20:19:29 53° NW 20:28:43 10° NE visible
24 Jan - 22:17:49 10° W 22:22:25 13° WNW 22:26:27 10° NNW visible
25 Jan - 11:09:04 10° NNW 11:19:19 34° NE 11:31:45 10° ESE daylight
25 Jan - 13:11:15 10° NW 13:24:35 75° NNE 13:39:47 10° ESE daylight
25 Jan - 15:17:08 10° W 15:32:06 78° S 15:46:26 10° E daylight
25 Jan - 17:24:39 10° WSW 17:40:06 83° SSE 17:52:23 10° ENE daylight
25 Jan - 19:32:27 10° WSW 19:46:21 59° NW 19:56:18 10° NE visible
25 Jan - 21:42:39 10° W 21:49:43 18° NW 21:55:32 10° NNW visible
26 Jan - 10:36:55 10° N 10:46:13 29° NE 10:57:36 10° E daylight
26 Jan - 12:38:19 10° NW 12:51:00 70° NNE 13:06:10 10° ESE daylight
26 Jan - 14:43:41 10° W 14:58:18 80° S 15:13:05 10° ESE daylight
26 Jan - 16:50:56 10° WSW 17:06:24 81° SSE 17:19:21 10° E daylight
26 Jan - 18:58:34 10° WSW 19:13:06 65° NNW 19:23:45 10° NE daylight
26 Jan - 21:07:59 10° W 21:16:57 23° NW 21:24:02 10° N visible
27 Jan - 10:04:59 10° N 10:13:12 24° NE 10:23:14 10° E daylight
27 Jan - 12:05:31 10° NW 12:17:31 65° NNE 12:32:28 10° ESE daylight
27 Jan - 14:10:22 10° W 14:24:29 82° SSW 14:39:37 10° ESE daylight
27 Jan - 16:17:18 10° WSW 16:32:39 79° S 16:46:13 10° E daylight
27 Jan - 18:24:45 10° WSW 18:39:44 71° NNW 18:51:06 10° NE daylight
27 Jan - 20:33:36 10° W 20:44:05 28° NW 20:52:15 10° N visible
28 Jan - 09:33:20 10° NNE 09:40:17 19° NE 09:48:38 10° E daylight
28 Jan - 11:32:50 10° NW 11:44:07 59° NE 11:58:41 10° ESE daylight
28 Jan - 13:37:09 10° WNW 13:50:42 84° SSW 14:06:05 10° ESE daylight
28 Jan - 15:43:44 10° W 15:58:50 78° S 16:12:59 10° E daylight
28 Jan - 17:50:59 10° WSW 18:06:15 77° NNW 18:18:20 10° NE daylight
28 Jan - 19:59:22 10° WSW 20:11:07 33° NW 20:20:13 10° NNE visible
29 Jan - 09:02:09 10° NNE 09:07:27 15° ENE 09:13:36 10° E daylight
29 Jan - 11:00:17 10° NW 11:10:49 53° NE 11:24:50 10° ESE daylight
29 Jan - 13:04:02 10° WNW 13:16:59 87° SSW 13:32:27 10° ESE daylight
29 Jan - 15:10:16 10° W 15:25:01 77° S 15:39:37 10° E daylight
29 Jan - 17:17:18 10° WSW 17:32:41 81° NNW 17:45:27 10° ENE daylight
29 Jan - 19:25:16 10° WSW 19:38:04 38° NW 19:48:01 10° NNE visible
30 Jan - 08:32:14 10° NE 08:34:42 11° ENE 08:37:21 10° ENE daylight
30 Jan - 10:27:51 10° NNW 10:37:38 47° NE 10:50:55 10° ESE daylight
30 Jan - 12:31:03 10° WNW 12:43:19 90° N 12:58:46 10° ESE daylight
30 Jan - 14:36:53 10° W 14:51:10 76° S 15:06:10 10° E daylight
30 Jan - 16:43:41 10° WSW 16:59:03 86° NNW 17:12:26 10° ENE daylight
30 Jan - 18:51:17 10° WSW 19:04:53 44° NW 19:15:39 10° NNE daylight
30 Jan - 21:06:35 10° WNW 21:08:07 10° WNW 21:09:36 10° NW visible
31 Jan - 09:55:34 10° NNW 10:04:34 41° NE 10:16:55 10° ESE daylight
31 Jan - 11:58:11 10° WNW 12:09:46 86° NNE 12:25:01 10° ESE daylight
31 Jan - 14:03:36 10° W 14:17:21 76° S 14:32:37 10° E daylight
31 Jan - 16:10:09 10° WSW 16:25:21 90° NNW 16:39:19 10° ENE daylight
31 Jan - 18:17:25 10° WSW 18:31:36 50° NW 18:43:09 10° NNE daylight
31 Jan - 20:29:16 10° W 20:35:15 14° WNW 20:40:37 10° NNW visible
